Theta_e
300 301 301 301 301 302 302 302 303 303 304 306 308 310 312 311 306 302 298 301 300 297 298 300 301 295 294 292 287 295 292 292 289 286 286 284 285 287 287 290 285 284 282 281 281 279 278 291 287 280 284 286 287 288
300 301 301 300 300 301 301 301 302 302 303 306 306 309 311 311 307 304 295 302 301 299 297 302 301 302 300 298 293 295 293 291 292 286 289 287 285 288 287 283 293 283 285 282 282 282 290 290 287 289 287 285 287 285
300 301 302 302 301 301 301 301 301 302 303 304 306 307 309 310 307 303 298 298 297 296 296 297 298 304 306 303 303 293 297 297 293 296 290 288 284 289 285 285 288 291 286 283 283 288 288 290 290 289 289 287 286 289
301 301 302 301 302 300 300 301 301 302 303 304 306 308 309 311 308 305 298 299 296 295 289 294 304 299 306 306 306 304 301 301 298 295 290 287 285 293 289 290 288 288 287 285 286 289 289 291 289 287 289 290 287 290
301 301 301 301 301 301 300 300 300 303 303 304 305 307 309 310 306 304 301 301 300 295 290 292 297 300 304 301 303 305 301 298 295 291 289 287 292 292 294 293 289 289 285 284 283 288 287 286 289 290 289 289 288 290
299 301 300 300 301 301 301 301 301 302 303 303 304 306 309 306 304 299 294 302 302 299 293 286 297 296 299 305 301 304 302 299 296 292 291 295 298 295 290 286 290 294 295 293 289 293 293 292 291 292 290 290 291 291
301 301 300 300 300 300 301 302 302 302 303 303 305 308 306 304 301 296 295 298 303 302 293 288 290 301 303 303 302 302 304 300 297 294 293 295 296 297 292 285 290 295 295 295 295 295 292 291 289 292 292 292 292 292
301 300 300 300 300 300 301 301 301 302 303 303 305 306 304 303 301 296 301 303 302 297 296 287 288 294 304 298 297 306 301 299 296 296 299 298 297 296 288 293 295 296 295 295 295 297 296 296 293 292 292 292 290 290
300 300 300 300 300 300 301 301 301 302 302 304 303 303 300 297 293 297 308 306 301 298 290 290 286 289 305 301 302 303 304 295 300 294 298 299 295 290 292 296 295 295 295 295 297 297 297 295 294 292 292 291 290 290
299 299 299 300 300 300 301 301 300 300 301 302 300 294 290 295 305 303 298 294 293 295 294 287 293 289 297 297 297 298 301 295 291 296 301 295 294 298 297 297 296 297 297 297 295 295 296 295 294 292 292 291 291 292
299 299 300 300 300 300 300 300 300 302 301 298 294 291 301 306 300 296 291 289 289 287 290 290 290 288 297 291 291 299 295 295 290 293 293 293 291 295 297 297 298 298 298 298 298 298 299 299 296 294 294 292 293 292
299 299 299 300 300 300 300 300 301 298 298 297 297 301 301 296 292 288 289 291 289 287 293 291 293 294 295 298 292 298 294 295 289 298 293 290 294 298 296 297 298 298 298 298 300 299 297 299 299 296 295 294 294 293
298 298 299 300 299 299 300 300 301 300 300 299 294 291 291 289 284 285 283 288 290 295 298 297 295 297 296 299 298 297 292 291 299 292 290 293 297 297 298 298 298 299 299 300 301 298 298 298 301 299 297 297 296 294
298 298 299 299 299 299 299 300 300 299 296 289 287 283 284 283 286 288 289 292 296 298 299 300 298 296 299 297 297 293 296 297 290 289 289 294 295 297 298 299 298 296 298 299 300 298 297 297 297 300 300 300 298 297
297 297 298 298 298 299 299 300 300 299 292 287 288 281 284 289 292 293 295 296 298 300 298 299 298 299 297 295 297 296 293 290 292 290 293 296 296 296 297 298 299 299 299 300 298 297 297 296 296 297 299 300 299 298
297 297 296 298 299 300 300 300 298 296 291 288 286 286 289 288 288 291 292 293 298 300 302 300 295 294 293 295 293 292 291 290 293 296 298 298 296 297 298 299 301 301 302 299 299 299 298 298 296 295 297 298 298 298
297 293 298 299 300 300 300 296 293 288 287 287 284 289 288 288 287 289 292 295 300 299 294 294 290 292 298 293 292 297 294 296 298 298 299 298 298 298 300 301 301 302 303 300 300 300 298 298 297 296 294 296 296 297
294 297 299 300 300 298 296 293 287 286 283 287 285 287 290 291 290 290 293 296 295 297 297 293 298 294 292 290 293 298 300 301 300 299 299 299 300 300 301 300 302 303 302 301 300 300 299 298 296 295 296 296 296 296
297 298 299 300 299 291 287 287 289 285 287 289 290 290 291 291 293 295 294 296 299 302 299 299 295 294 294 299 299 299 300 299 298 299 299 300 300 300 301 302 302 301 301 300 299 298 298 298 296 296 296 296 294 294
299 299 300 300 299 291 289 290 294 289 288 290 291 290 290 291 293 296 295 295 299 298 295 294 295 299 300 303 305 304 303 302 300 298 298 299 300 300 299 298 298 300 301 301 301 297 298 296 297 297 296 295 295 294
297 298 299 297 294 293 291 292 290 291 293 291 293 293 292 295 293 293 292 297 294 295 295 298 300 303 307 307 308 307 303 303 301 300 298 296 299 299 298 299 299 299 298 298 298 298 297 297 298 297 296 295 295 295
295 298 295 296 292 293 292 294 293 295 292 292 293 294 291 292 292 294 297 294 296 298 301 302 303 305 304 305 307 307 307 306 304 301 299 298 297 298 298 298 298 298 298 298 298 298 299 299 299 299 299 298 297 296
296 295 295 294 290 289 289 297 290 292 288 290 293 290 291 293 296 300 294 297 299 303 304 304 306 309 306 308 309 307 308 306 303 302 301 302 301 302 302 301 301 299 298 299 300 298 299 297 297 299 299 300 297 296
298 293 289 289 290 286 293 290 293 292 291 291 291 289 292 295 299 295 293 297 299 303 302 304 306 305 306 306 306 306 307 308 306 305 306 305 301 301 303 302 302 301 302 301 299 300 299 299 296 298 299 298 297 297
286 286 288 285 290 288 288 289 290 291 289 292 290 292 294 298 293 292 293 297 299 301 303 305 305 305 304 303 305 305 308 309 306 305 307 306 305 305 304 305 304 303 303 303 302 299 300 298 298 299 299 299 298 298
283 288 285 288 288 287 289 288 289 290 291 290 292 297 299 295 292 291 295 299 301 302 303 304 304 304 302 304 303 305 307 309 308 305 307 307 306 305 304 302 301 301 304 303 304 302 300 298 299 299 299 297 292 300
283 287 291 294 293 293 291 294 295 292 290 290 293 294 294 289 290 297 303 307 303 305 307 307 307 305 304 303 305 307 307 308 307 305 307 308 308 308 306 304 303 305 307 306 306 305 303 301 301 301 301 300 299 300
290 292 289 291 291 294 290 292 292 291 293 297 297 292 292 292 294 303 306 308 309 308 308 308 308 307 305 306 306 306 307 308 308 308 308 307 308 309 309 308 306 295 303 304 308 308 307 305 304 303 303 302 301 302
290 293 294 291 292 293 293 294 295 299 302 301 296 294 296 301 304 306 309 305 306 306 305 304 305 307 307 307 307 306 306 305 303 301 300 300 301 303 306 308 308 308 307 304 290 298 306 306 306 306 306 305 303 303
291 295 292 293 292 292 297 302 300 303 304 303 302 301 300 302 306 310 309 307 305 305 306 306 305 304 303 303 302 304 307 308 306 304 301 301 302 305 306 306 307 307 308 307 306 302 291 302 299 305 305 305 305 304
296 295 294 294 294 299 302 302 301 301 300 299 301 298 297 300 304 306 307 308 306 306 305 304 303 305 303 303 303 302 303 306 307 307 307 307 306 307 307 306 306 306 306 306 305 304 304 303 303 303 303 303 304 302
295 294 293 292 295 301 303 300 296 294 296 295 294 298 299 298 294 299 305 308 305 303 299 302 303 303 305 305 305 302 295 300 300 304 306 304 305 305 306 306 307 307 307 306 306 305 305 305 304 304 303 303 303 303
294 294 295 295 296 296 300 299 295 292 293 292 292 294 295 296 294 300 308 308 306 304 304 305 306 306 305 304 302 299 296 296 290 287 287 287 288 294 303 305 305 304 303 303 303 303 303 304 302 303 302 300 300 299
Wind_Speed
12 12 14 15 16 17 17 19 19 20 20 20 22 20 15 8 9 4 5 4 3 4 12 8 7 7 9 5 3 5 6 4 4 6 3 4 3 5 5 7 3 3 4 3 4 5 5 20 9 8 10 18 20 22
12 12 11 14 15 17 18 19 19 20 20 20 22 21 19 15 13 8 4 1 5 6 9 17 24 25 21 24 5 3 4 3 2 0 1 3 4 4 5 5 1 3 1 3 3 5 13 12 13 11 15 17 13 16
12 14 15 14 14 17 18 19 19 21 21 20 22 22 20 19 15 12 2 3 3 4 12 9 10 14 10 14 11 4 2 5 4 3 1 2 5 3 3 4 4 1 2 3 4 4 11 15 9 8 14 12 14 15
13 15 15 15 14 16 18 19 20 21 22 21 21 22 20 12 16 12 2 1 1 4 5 8 10 8 8 3 13 11 6 5 6 3 3 3 4 4 3 6 6 0 3 4 6 7 15 3 11 12 14 14 13 14
14 14 15 16 15 15 17 18 20 20 21 22 23 24 24 11 12 4 4 4 4 2 4 10 18 18 13 13 14 11 12 7 3 3 3 4 4 4 4 5 1 1 3 3 4 10 7 8 11 12 11 13 14 15
15 12 14 15 15 16 16 17 18 20 21 24 24 24 5 12 9 1 3 2 4 5 3 6 7 12 12 7 12 14 11 4 3 3 3 4 5 3 3 3 2 3 2 3 4 8 5 8 8 9 9 11 13 14
15 11 13 15 16 17 17 19 20 20 21 23 24 6 12 12 3 3 3 2 8 2 2 6 7 6 7 5 7 5 8 4 4 3 4 4 4 6 3 3 4 3 4 3 8 8 2 4 5 10 10 11 11 13
11 14 15 16 16 16 17 18 19 20 21 22 10 9 8 5 5 6 6 10 4 3 3 4 7 6 7 4 5 5 5 3 4 3 4 4 3 4 4 4 7 4 6 5 10 6 1 1 6 9 9 10 13 14
14 15 16 16 16 16 17 17 17 18 22 6 10 6 1 2 3 3 8 9 6 3 3 4 4 5 3 4 4 3 4 4 5 5 5 4 3 5 5 8 7 3 3 5 8 10 8 4 9 8 9 11 12 13
16 16 16 16 15 15 15 15 16 17 16 9 1 1 3 4 8 1 1 3 3 4 4 7 4 9 7 5 4 3 4 4 4 6 3 4 4 7 9 8 5 4 4 4 8 5 10 9 9 10 10 9 10 10
17 17 17 16 15 14 13 14 14 14 5 2 2 3 1 2 2 3 4 4 4 5 6 6 9 10 4 6 3 3 3 3 3 4 3 3 2 4 7 9 4 4 3 6 7 11 1 13 11 12 10 11 12 12
16 17 18 16 14 13 14 13 12 3 3 6 6 6 3 2 3 5 4 5 7 7 8 5 8 8 5 2 4 5 3 3 4 3 3 3 3 9 7 8 5 4 4 7 8 10 8 14 14 14 13 11 11 12
18 18 18 16 14 14 14 13 11 10 7 3 3 3 3 4 7 6 8 6 6 6 5 6 3 4 3 4 4 2 4 5 3 3 4 2 8 8 7 6 5 3 5 10 8 9 8 10 15 15 14 13 14 14
18 18 18 16 16 16 15 14 13 8 3 4 5 7 7 7 7 8 9 10 8 8 5 4 3 4 4 4 3 4 5 4 4 4 4 6 8 8 7 5 4 4 7 10 3 9 10 7 8 15 13 13 12 12
19 19 19 19 18 18 18 17 15 5 3 5 5 7 10 9 10 12 11 11 9 12 10 1 3 6 2 4 5 4 3 5 5 2 2 8 10 8 7 4 3 4 7 8 8 8 10 9 7 7 8 14 13 11
19 19 15 19 20 20 19 15 9 4 4 6 8 7 8 9 10 10 12 12 8 6 3 4 2 4 7 5 6 6 4 0 2 4 7 9 10 8 7 4 4 4 8 8 7 8 8 8 8 6 6 7 9 10
18 7 10 13 15 16 17 7 5 7 7 9 8 10 13 12 14 14 11 11 10 8 3 2 6 9 4 5 6 2 4 5 8 8 7 9 10 10 5 4 3 7 6 7 7 9 8 7 7 6 7 6 8 7
13 13 19 18 11 8 4 5 5 6 9 8 8 12 11 10 14 14 11 10 8 10 3 5 9 1 2 2 3 3 5 6 7 8 7 8 9 8 7 6 2 6 5 7 8 6 7 7 7 5 6 7 7 7
14 13 16 14 7 4 3 5 6 6 10 8 12 12 10 10 11 9 5 11 15 8 3 6 6 3 2 3 4 6 6 8 8 8 8 11 9 8 9 8 8 8 5 8 7 4 4 6 6 5 5 5 4 4
21 23 21 20 15 5 6 5 6 7 6 7 10 12 12 10 10 5 5 13 6 2 4 4 2 4 2 2 2 6 3 9 9 8 8 8 7 11 8 3 3 4 6 6 5 5 4 4 4 5 4 5 5 4
4 3 12 9 4 6 4 3 6 5 4 4 4 6 6 4 7 8 11 2 3 4 5 4 7 3 3 4 4 5 7 9 9 8 9 8 7 9 8 5 1 2 3 1 4 4 8 6 5 4 5 5 5 5
3 10 2 5 4 4 4 4 4 5 3 2 4 5 5 7 9 8 9 9 6 6 2 3 2 4 8 2 4 9 9 12 11 9 8 9 8 6 7 8 7 4 4 3 2 2 1 4 5 4 5 7 7 6
11 4 4 4 4 4 5 4 5 5 3 3 4 4 4 3 4 5 5 5 1 1 1 3 2 7 7 6 8 4 8 10 8 8 7 8 7 5 5 5 3 2 4 4 4 3 2 7 6 4 5 7 6 5
9 4 4 4 7 5 2 5 5 3 4 5 5 4 4 2 2 2 2 2 4 3 5 3 2 5 6 6 6 6 6 8 8 7 5 7 7 5 5 5 6 6 4 2 4 4 4 5 6 5 6 8 6 5
2 4 4 5 5 4 5 4 4 4 4 6 3 4 6 3 2 3 4 3 2 3 9 8 6 7 6 3 2 4 2 4 7 8 8 8 4 5 6 5 5 4 3 7 6 7 4 5 5 5 5 8 7 7
5 6 6 4 3 5 3 4 4 5 3 3 3 4 4 3 3 1 3 5 5 5 7 7 7 6 3 1 6 6 5 4 7 7 6 9 8 7 6 5 4 3 3 3 4 8 7 6 5 6 6 7 7 10
4 5 7 6 4 5 5 7 8 3 3 2 2 3 3 2 1 3 3 3 7 5 8 9 9 8 6 4 5 8 5 5 6 6 6 5 5 5 5 5 5 3 5 5 5 6 8 8 6 6 7 6 6 6
6 6 7 9 8 5 7 9 5 3 5 5 4 3 2 2 3 4 4 6 4 8 7 6 5 7 9 5 5 8 7 7 9 9 7 7 5 6 7 6 6 13 7 5 4 5 5 5 5 5 7 6 5 5
5 4 6 9 6 5 3 4 3 3 4 3 2 4 4 4 4 5 2 7 6 4 9 9 5 8 8 4 4 4 5 7 9 11 10 6 3 3 4 4 4 5 6 8 9 7 8 5 6 6 7 6 5 5
9 5 4 6 4 3 1 1 6 6 7 5 4 6 5 3 6 6 5 7 4 7 7 7 7 8 7 10 7 7 5 4 3 6 6 6 4 5 5 5 5 4 5 6 6 5 6 6 5 4 4 3 3 3
3 5 4 4 2 3 6 8 8 9 7 6 7 6 3 3 4 6 5 5 5 6 8 6 3 8 8 8 8 8 7 5 8 10 8 6 6 6 5 5 4 4 5 6 5 4 4 2 3 5 7 7 7 5
5 6 2 0 2 6 6 4 5 4 5 4 4 4 3 3 4 5 4 4 6 6 5 3 8 8 7 8 10 10 12 7 8 7 10 6 6 3 4 4 4 4 4 4 3 4 6 5 5 5 6 7 7 4
3 4 3 3 3 4 3 5 5 2 2 3 3 3 3 1 2 2 2 3 2 1 4 9 8 9 11 11 11 10 11 8 9 9 10 10 10 9 7 6 5 7 9 7 7 8 9 7 6 7 8 8 9 10
Wind_Direction
324 329 331 334 338 338 341 341 338 337 335 336 337 336 325 266 204 180 275 280 242 266 289 259 332 308 307 284 242 332 15 24 35 15 334 339 307 302 320 302 299 302 320 337 302 280 311 6 334 340 298 300 301 303
315 316 325 331 333 330 336 338 336 334 333 330 334 331 332 325 190 186 268 300 327 234 263 305 279 268 250 247 263 245 192 138 132 140 327 305 286 304 321 294 115 294 230 296 215 270 306 320 304 304 302 297 305 299
304 312 319 322 328 329 330 333 333 331 329 330 329 326 324 323 181 184 260 340 314 280 280 249 268 263 220 212 193 179 141 113 167 165 175 267 268 279 281 270 285 124 138 253 299 231 305 314 324 301 320 325 313 317
297 306 318 322 318 326 327 329 331 327 328 327 326 325 318 292 180 186 202 220 333 277 276 288 343 315 328 245 184 191 120 132 118 148 194 228 256 232 260 264 272 328 308 274 257 285 304 327 349 334 334 339 338 337
289 295 308 315 313 317 322 325 326 322 327 328 327 324 322 172 167 202 251 240 212 247 295 299 302 273 260 230 201 163 145 137 145 168 193 225 235 251 231 238 204 225 265 316 299 305 306 306 341 343 347 350 350 356
289 286 299 305 307 309 314 317 318 322 326 327 325 325 173 136 130 103 283 156 196 195 273 295 314 276 278 212 183 173 166 124 138 177 204 236 232 246 265 269 206 220 252 167 277 287 327 331 343 344 359 359 4 10
280 278 290 299 302 304 307 311 316 320 323 322 324 299 141 148 160 207 299 300 317 306 254 289 278 263 225 212 187 178 153 141 140 191 224 231 217 192 251 242 221 142 130 257 268 285 217 356 6 7 26 18 20 30
273 279 286 290 295 298 305 312 317 319 320 320 312 120 124 156 288 286 242 225 232 274 260 268 275 282 184 197 205 159 139 135 177 223 243 222 129 219 252 207 136 146 156 238 271 277 202 76 69 37 38 22 35 36
273 278 283 287 291 294 301 308 317 322 320 309 107 111 103 244 243 259 318 179 178 258 276 242 247 281 163 237 194 100 119 189 170 215 230 199 197 221 221 138 146 156 193 266 291 280 142 113 87 62 42 45 45 43
273 274 277 281 284 290 296 305 315 317 312 131 300 256 257 218 276 208 326 128 171 210 233 249 264 255 336 359 296 139 171 224 203 222 138 199 226 94 99 99 113 156 236 279 290 24 145 118 93 81 76 74 58 50
272 272 275 277 277 282 293 303 309 355 121 263 242 247 323 313 241 241 225 195 163 236 220 242 229 246 273 243 260 215 203 194 251 244 186 237 206 118 122 115 142 208 233 261 269 287 209 137 127 102 83 89 77 62
273 276 275 275 274 286 288 289 289 295 289 331 301 280 266 237 231 249 216 189 204 242 181 216 209 194 245 169 203 263 216 200 249 148 234 251 116 128 132 135 181 228 251 271 261 269 86 135 126 125 113 108 96 88
270 274 271 269 271 277 278 274 269 265 303 282 244 258 231 197 237 227 206 205 214 202 202 203 210 165 218 241 220 212 227 222 144 218 231 113 136 128 133 145 185 242 264 273 271 98 83 95 133 132 130 120 118 111
269 275 275 270 269 270 272 268 259 255 212 236 222 221 217 217 223 208 234 234 237 279 286 223 197 192 212 221 205 226 228 148 219 213 225 145 132 137 147 171 177 210 247 267 182 126 114 96 99 142 138 141 139 137
268 271 271 267 266 263 259 255 248 216 223 241 231 233 222 234 272 279 266 253 269 285 267 318 359 233 215 260 219 239 232 231 211 183 103 127 133 147 157 176 212 240 260 251 109 104 108 104 86 67 98 152 153 140
273 275 266 264 258 253 247 247 228 200 224 223 240 243 253 257 256 253 265 284 280 269 28 74 230 261 216 206 234 222 235 142 86 89 120 125 139 142 161 182 238 275 296 110 104 108 110 104 109 107 91 98 118 130
271 254 251 250 253 249 243 227 177 203 220 215 228 234 256 269 269 275 286 291 316 299 159 123 248 210 219 232 217 310 20 113 115 121 132 138 143 146 156 153 255 303 327 110 112 106 107 111 117 113 110 97 95 110
257 260 262 265 251 246 215 173 203 226 228 217 230 235 231 240 247 259 265 281 291 269 134 198 266 255 204 331 324 48 54 94 103 112 122 127 129 131 133 146 248 283 283 101 101 111 121 114 109 110 101 92 91 98
261 262 258 260 250 129 222 212 213 235 218 232 223 230 235 242 237 244 234 286 270 284 318 210 216 218 226 52 132 152 174 143 127 128 133 132 132 135 137 170 219 241 124 101 99 107 114 130 124 118 118 112 104 96
263 265 258 255 198 181 228 211 207 240 237 216 221 231 232 235 239 232 289 253 268 302 247 240 238 29 278 168 103 109 120 129 129 136 147 153 151 139 145 108 34 38 116 129 143 138 105 104 117 138 165 140 135 156
148 166 138 125 156 225 269 237 228 258 257 216 253 272 259 260 213 227 243 270 253 225 204 182 211 180 61 19 264 156 132 138 143 147 141 127 138 139 143 139 164 357 86 72 128 149 155 170 170 173 145 141 138 155
107 156 137 192 231 233 248 236 261 321 276 270 278 207 256 223 227 214 212 208 216 200 178 124 90 93 95 20 183 128 133 134 133 126 123 138 133 144 140 152 178 169 172 194 191 142 108 124 116 124 142 127 121 117
147 211 206 192 238 244 247 169 217 234 260 276 184 201 223 226 223 221 207 222 197 82 110 122 160 130 134 103 110 96 112 120 130 135 141 129 123 108 89 81 65 95 145 162 169 160 156 115 124 121 115 119 116 110
205 219 210 218 208 247 246 207 207 223 218 234 181 216 223 215 144 245 220 234 185 150 106 9 116 141 100 76 108 151 181 131 133 141 141 123 137 136 129 149 179 195 232 204 134 125 129 121 123 122 114 128 129 136
148 224 210 244 261 234 238 235 220 234 233 226 210 197 157 155 176 229 193 148 240 179 136 183 147 126 105 130 172 67 39 138 140 138 139 140 190 156 184 180 166 163 192 154 154 147 145 142 159 161 165 149 161 163
228 215 196 226 237 228 241 259 224 222 250 177 285 312 333 205 180 207 180 152 158 149 144 140 124 119 131 318 116 153 170 139 128 132 155 159 171 172 176 167 157 185 195 145 128 154 149 160 173 180 168 171 166 166
244 243 214 215 249 263 277 247 239 282 205 180 235 228 242 214 97 70 290 3 137 135 125 141 145 153 162 130 94 101 88 107 116 107 104 112 127 141 156 151 148 192 165 161 164 168 150 169 181 175 143 147 152 108
221 231 247 238 221 216 246 278 281 165 182 185 200 171 90 22 54 16 2 31 26 109 110 97 107 106 104 107 108 108 113 106 95 96 85 61 62 95 97 89 94 81 76 68 112 115 134 133 125 137 124 115 100 93
246 256 262 266 265 253 310 301 1 40 347 32 58 51 57 43 18 351 45 86 6 303 123 108 100 109 120 108 73 82 103 116 126 125 119 110 94 73 101 113 101 93 91 85 61 78 86 105 102 91 90 119 153 172
245 205 243 263 255 256 126 24 75 69 39 38 87 97 61 25 5 339 83 101 62 90 90 117 127 115 105 100 91 77 62 61 96 125 126 130 126 101 87 97 104 99 107 111 111 101 70 94 89 94 123 134 148 117
236 187 241 222 246 92 111 80 64 44 34 38 35 65 50 356 17 13 31 84 119 106 91 70 40 110 115 112 112 102 85 52 70 98 94 88 79 88 91 97 96 83 82 119 138 156 164 159 196 179 193 183 172 181
188 207 201 294 134 139 128 86 72 54 21 43 25 16 8 41 44 0 338 46 84 74 61 40 96 88 85 81 79 77 81 62 36 44 63 58 54 67 110 100 100 109 122 125 133 153 117 102 70 65 74 53 58 34
196 227 237 253 163 169 128 117 98 79 54 54 23 12 358 74 108 216 26 356 333 235 155 116 105 95 97 90 92 90 88 90 86 70 68 61 53 47 56 43 52 70 56 49 57 62 62 84 99 85 78 82 69 65